Lafayette, IN

5:45 PM EDT on May 24, 2017 (GMT -0400)
Purdue Univ

Weather History for KLAF - July, 2014

Change the Weather History Date:

Sunday, July 27, 2014

  Actual Average Record
Temperature  
Mean Temperature 74 °F 74 °F  
Max Temperature 85 °F 84 °F 98 °F (1997)
Min Temperature 63 °F 64 °F 47 °F (1977)
Degree Days  
Heating Degree Days 0 0  
Month to date heating degree days 12 0  
Since 1 June heating degree days 18 22  
Since 1 July heating degree days 12 0  
Cooling Degree Days 9 9  
Month to date cooling degree days 120 263  
Year to date cooling degree days 442 557  
Since 1 June cooling degree days 345 480  
Growing Degree Days 24 (Base 50)    
Moisture  
Dew Point 65 °F    
Average Humidity 74    
Maximum Humidity 100    
Minimum Humidity 47    
Precipitation  
Precipitation 0.06 in 0.11 in 1.35 in (1959)
Month to date precipitation 3.24 3.54  
Year to date precipitation 20.54 21.66  
Sea Level Pressure  
Sea Level Pressure 29.79 in    
Wind  
Wind Speed 8 mph (West)    
Max Wind Speed 29 mph    
Max Gust Speed 39 mph    
Visibility 5 miles    
Events Rain , Thunderstorm    
T = Trace of Precipitation, MM = Missing Value Source: NWS Daily Summary

Daily Weather History Graph

Daily Weather History Graph

Search for Another Location

Airport or City:

Trip Planner

Search our weather history database for the weather conditions in past years. The results will help you decide how hot, cold, wet, or windy it might be!

Date:

Astronomy

Jul. 27, 2014 Rise Set
Actual Time 6:40 AM EDT 9:07 PM EDT
Civil Twilight 6:09 AM EDT 9:38 PM EDT
Nautical Twilight 5:30 AM EDT 10:16 PM EDT
Astronomical Twilight 4:48 AM EDT 10:59 PM EDT
Moon 7:27 AM EDT (7/27) 9:16 PM EDT (7/27)
Length of Visible Light 15h 28m
Length of Day
14h 26m
New Moon, 0% of the Moon is Illuminated
Jul 27
New Moon
Aug 3
First Quarter
Aug 10
Full
Aug 17
Last Quarter
Aug 25
New

Hourly Weather History & Observations

Time (EDT) Temp. Heat Index Dew Point Humidity Pressure Visibility Wind Dir Wind Speed Gust Speed Precip Events Conditions
12:08 AM 66.9 °F - 66.0 °F 97% 29.85 in 1.2 mi Calm Calm - N/A   Partly Cloudy
12:11 AM 66.9 °F - 66.0 °F 97% 29.85 in 3.0 mi Calm Calm - N/A   Partly Cloudy
12:36 AM 64.9 °F - 64.9 °F 100% 29.86 in 0.8 mi Calm Calm - N/A   Mist
12:50 AM 64.4 °F - 64.4 °F 100% 29.86 in 1.2 mi Calm Calm - N/A   Partly Cloudy
12:54 AM 66.0 °F - 66.0 °F 100% 29.85 in 5.0 mi Calm Calm - N/A   Partly Cloudy
12:59 AM 64.9 °F - 64.9 °F 100% 29.87 in 1.5 mi West 3.5 mph - N/A   Partly Cloudy
1:21 AM 64.9 °F - 64.9 °F 100% 29.86 in 2.0 mi WSW 3.5 mph - N/A   Clear
1:31 AM 66.0 °F - 64.9 °F 96% 29.86 in 4.0 mi Calm Calm - N/A   Clear
1:54 AM 64.9 °F - 64.9 °F 100% 29.85 in 2.5 mi Calm Calm - N/A   Clear
2:01 AM 64.9 °F - 64.9 °F 100% 29.86 in 5.0 mi Calm Calm - N/A   Clear
2:54 AM 64.9 °F - 64.9 °F 100% 29.84 in 10.0 mi Calm Calm - N/A   Clear
3:54 AM 64.9 °F - 64.0 °F 97% 29.81 in 6.0 mi Calm Calm - N/A   Clear
4:06 AM 64.0 °F - 64.0 °F 100% 29.81 in 1.5 mi Calm Calm - N/A   Partly Cloudy
4:54 AM 64.0 °F - 64.0 °F 100% 29.79 in 0.8 mi NW 3.5 mph - N/A   Partly Cloudy
5:04 AM 64.0 °F - 63.0 °F 96% 29.80 in 1.2 mi Calm Calm - N/A   Partly Cloudy
5:15 AM 64.0 °F - 64.0 °F 100% 29.81 in 2.5 mi Calm Calm - N/A   Mostly Cloudy
5:23 AM 64.9 °F - 64.9 °F 100% 29.80 in 2.0 mi Calm Calm - N/A   Mostly Cloudy
5:30 AM 64.0 °F - 64.0 °F 100% 29.80 in 1.2 mi Calm Calm - N/A   Mostly Cloudy
5:43 AM 64.0 °F - 64.0 °F 100% 29.79 in 1.0 mi NE 3.5 mph - N/A   Mostly Cloudy
5:52 AM 64.4 °F - 64.4 °F 100% 29.79 in 3.0 mi North 4.6 mph - N/A Thunderstorm Scattered Clouds
5:54 AM 64.0 °F - 64.0 °F 100% 29.78 in 4.0 mi NNW 4.6 mph - N/A Thunderstorm Scattered Clouds
6:13 AM 66.0 °F - 64.9 °F 96% 29.78 in 3.0 mi South 5.8 mph - 0.03 in Rain , Thunderstorm Light Thunderstorms and Rain
6:22 AM 66.0 °F - 66.0 °F 100% 29.78 in 2.0 mi East 3.5 mph - 0.06 in Rain , Thunderstorm Rain
6:28 AM 66.0 °F - 66.0 °F 100% 29.78 in 3.0 mi Calm Calm - 0.06 in Rain , Thunderstorm Light Rain
6:40 AM 66.0 °F - 66.0 °F 100% 29.78 in 4.0 mi Calm Calm - 0.06 in   Mostly Cloudy
6:54 AM 66.0 °F - 64.9 °F 96% 29.76 in 3.0 mi NNW 3.5 mph - 0.06 in   Mostly Cloudy
7:19 AM 66.9 °F - 66.9 °F 100% 29.77 in 2.5 mi Calm Calm - N/A   Mostly Cloudy
7:54 AM 66.9 °F - 66.9 °F 100% 29.76 in 2.0 mi Calm Calm - N/A   Scattered Clouds
8:24 AM 68.0 °F - 68.0 °F 100% 29.78 in 2.0 mi Calm Calm - N/A   Mostly Cloudy
8:54 AM 69.1 °F - 68.0 °F 96% 29.78 in 2.5 mi SSE 4.6 mph - N/A   Overcast
9:16 AM 69.1 °F - 69.1 °F 100% 29.80 in 2.5 mi South 4.6 mph - N/A   Overcast
9:39 AM 69.1 °F - 69.1 °F 100% 29.79 in 5.0 mi SSW 5.8 mph - 0.00 in Rain Light Rain
9:54 AM 70.0 °F - 69.1 °F 97% 29.78 in 6.0 mi Calm Calm - 0.00 in   Overcast
10:54 AM 71.1 °F - 70.0 °F 96% 29.78 in 8.0 mi WSW 5.8 mph - 0.00 in   Overcast
11:54 AM 73.0 °F - 71.1 °F 93% 29.78 in 6.0 mi WSW 6.9 mph - N/A   Overcast
12:40 PM 78.1 °F - 73.0 °F 84% 29.78 in 9.0 mi WSW 8.1 mph - N/A   Mostly Cloudy
12:54 PM 79.0 °F - 72.0 °F 79% 29.77 in 9.0 mi WSW 6.9 mph - N/A   Mostly Cloudy
1:12 PM 81.0 °F 85.2 °F 72.0 °F 74% 29.77 in 10.0 mi West 8.1 mph - N/A   Scattered Clouds
2:54 PM 84.9 °F 89.4 °F 70.0 °F 61% 29.72 in 10.0 mi West 10.4 mph 16.1 mph N/A   Partly Cloudy
3:36 PM 82.9 °F 87.0 °F 70.0 °F 65% 29.71 in 10.0 mi WSW 13.8 mph - N/A Thunderstorm Mostly Cloudy
3:45 PM 82.0 °F 85.5 °F 69.1 °F 65% 29.72 in 10.0 mi WNW 12.7 mph - N/A Thunderstorm Thunderstorm
3:54 PM 77.0 °F - 68.0 °F 74% 29.72 in 10.0 mi WNW 11.5 mph 29.9 mph N/A Thunderstorm Thunderstorm
4:30 PM 84.0 °F 85.4 °F 64.0 °F 51% 29.70 in 10.0 mi West 27.6 mph 35.7 mph N/A   Partly Cloudy
4:54 PM 82.9 °F 83.3 °F 61.0 °F 47% 29.70 in 10.0 mi WNW 24.2 mph 38.0 mph N/A   Clear
5:54 PM 82.0 °F 82.4 °F 60.1 °F 47% 29.73 in 10.0 mi West 16.1 mph 26.5 mph N/A   Clear
6:54 PM 79.0 °F - 57.9 °F 48% 29.75 in 10.0 mi WNW 19.6 mph 35.7 mph N/A   Scattered Clouds
7:54 PM 75.9 °F - 57.9 °F 54% 29.78 in 10.0 mi WNW 17.3 mph 23.0 mph N/A   Scattered Clouds
8:54 PM 72.0 °F - 57.9 °F 61% 29.80 in 10.0 mi WNW 9.2 mph - N/A   Partly Cloudy
9:54 PM 70.0 °F - 57.0 °F 63% 29.82 in 10.0 mi West 11.5 mph - N/A   Clear
10:54 PM 66.0 °F - 57.9 °F 75% 29.84 in 10.0 mi West 8.1 mph - N/A   Clear
11:54 PM 64.9 °F - 57.9 °F 78% 29.84 in 10.0 mi West 6.9 mph - N/A   Partly Cloudy